Location: Los Ranchitos
(37.9930°N, 122.5425°W)
Time: 03:19:08
(UTC+00:00)

SL-16 R/B - Pass Details

Date: 21 September 2020
Orbit: 842 x 846 km, 71.0° (Epoch: 27 October)

Event Time Altitude Azimuth Distance (km) Brightness Sun altitude
Exits shadow 10:47:46 17° 117° (ESE) 2,008 4.4 -36.1°
Maximum altitude 10:49:05 18° 99° (E) 1,937 4.4 -35.9°
Drops below altitude 10° 10:52:49 10° 58° (ENE) 2,467 5.4 -35.2°
Sets 10:56:00 0° 40° (NE) 3,407 6.3 -34.7°
